Location: Unspecified
(42.9300°N, 71.1866°W)
Time: 19:33:11
(UTC-05:00)

Okean 3 - Visible Passes

Search period start: 28 February 2015 00:00
Search period end: 10 March 2015 01:00
Orbit: 581 x 607 km, 82.5° (Epoch: 27 February)

Date Brightness Start Highest point End Pass type
(mag) Time Alt. Az. Time Alt. Az. Time Alt. Az.
28 Feb 4.7 03:53:29 38° NNE 03:53:29 38° NNE 03:56:14 10° NNE visible
28 Feb 5.5 05:30:09 11° WNW 05:30:09 11° WNW 05:31:11 10° NW visible
01 Mar 4.8 04:03:24 32° N 04:03:24 32° N 04:05:45 10° N visible
02 Mar 5.0 04:13:14 25° NNW 04:13:14 25° NNW 04:15:10 10° N visible
03 Mar 6.6 02:46:22 11° NE 02:46:22 11° NE 02:46:39 10° NE visible
03 Mar 5.3 04:23:01 18° NNW 04:23:01 18° NNW 04:24:26 10° N visible
04 Mar 6.4 02:56:05 13° NNE 02:56:05 13° NNE 02:56:36 10° NNE visible
04 Mar 5.6 04:32:44 14° NNW 04:32:44 14° NNW 04:33:31 10° NNW visible
05 Mar 6.3 03:05:45 13° NNE 03:05:45 13° NNE 03:06:20 10° NNE visible
06 Mar 6.2 03:15:23 13° NNE 03:15:23 13° NNE 03:15:54 10° N visible
07 Mar 6.1 03:24:59 12° N 03:24:59 12° N 03:25:22 10° N visible
08 Mar 6.2 04:34:33 11° N 04:34:33 11° N 04:34:43 10° N visible
